Location: Jackson
(42.2460°N, 84.4010°W)
Time: 03:15:39
(UTC-05:00)

Vanguard 1 - Visible Passes

Search period start: 15 February 2026 00:00
Search period end: 25 February 2026 00:00
Orbit: 652 x 3820 km, 34.3° (Epoch: 13 February)

Date Brightness Start Highest point End Pass type
(mag) Time Alt. Az. Time Alt. Az. Time Alt. Az.
15 Feb 12.8 18:22:07 10° WSW 18:37:04 67° S 18:59:56 10° E visible
15 Feb 13.0 20:43:51 10° W 21:02:36 59° SSW 21:13:54 37° SE visible
15 Feb 13.4 23:08:40 10° W 23:26:29 34° SW 23:26:29 34° SW visible
16 Feb 12.8 18:41:24 10° W 18:56:41 67° S 19:19:39 10° ESE visible
16 Feb 13.1 21:03:27 10° W 21:22:07 53° SSW 21:32:18 37° SSE visible
16 Feb 13.6 23:29:16 10° W 23:44:54 27° SW 23:44:54 27° SW visible
17 Feb 12.9 19:00:44 10° W 19:16:19 65° S 19:38:11 12° ESE visible
17 Feb 13.2 21:23:08 10° W 21:41:31 47° SSW 21:50:47 35° SSE visible
17 Feb 13.8 23:50:32 10° W 00:03:23 21° SW 00:03:23 21° SW visible
18 Feb 12.9 19:20:07 10° W 19:35:56 62° SSW 19:56:45 14° ESE visible
18 Feb 13.3 21:42:57 10° W 22:00:50 41° SSW 22:09:22 32° S visible
19 Feb 14.0 00:13:14 10° W 00:21:58 15° WSW 00:21:58 15° WSW visible
19 Feb 13.0 19:39:33 10° W 19:55:31 58° SSW 20:15:25 15° SE visible
19 Feb 13.5 22:03:00 10° W 22:20:04 34° SW 22:28:02 28° S visible
20 Feb 13.1 19:59:02 10° W 20:15:03 52° SSW 20:34:10 16° SE visible
20 Feb 13.7 22:23:26 10° W 22:39:12 28° SW 22:46:48 24° SSW visible
21 Feb 13.2 20:18:37 10° W 20:34:31 46° SSW 20:53:02 15° SE visible
21 Feb 13.9 22:44:30 10° W 22:58:17 22° SW 23:05:40 18° SSW visible
22 Feb 12.8 18:16:37 10° W 18:29:37 60° S 18:50:57 10° ESE visible
22 Feb 13.4 20:38:21 10° W 20:53:56 40° SSW 21:12:02 14° SSE visible
22 Feb 14.0 23:06:52 10° WSW 23:17:19 16° SW 23:24:40 13° SSW visible
23 Feb 12.9 18:35:59 10° W 18:49:09 55° SSW 19:10:18 10° SE visible
23 Feb 13.6 20:58:18 10° W 21:13:17 33° SW 21:31:09 12° SSE visible
24 Feb 13.1 18:55:23 10° W 19:08:40 50° SSW 19:29:23 10° SE visible
24 Feb 13.8 21:18:38 10° W 21:32:35 27° SW 21:49:42 10° S visible
